Location: Alberta Star Party
(51.6612°N, 112.9089°W)
Time: 17:55:52
(UTC-06:00)

Amateur Radio Satellites - All Passes

Search period start: 24 April 2014 17:25
Search period end: 25 April 2014 17:25
Location: Alberta Star Party, 51.6612°N, 112.9089°W

Satellite Date Start Highest point End Downlink Frequencies (MHz)
Time Altitude Azimuth
TMSAT-1 24 Apr 17:26:29 17:29:52 17° 273° (W) 17:33:17 436.925 FM
AO-7 24 Apr 17:27:58 17:36:06 59° 257° (WSW) 17:44:19 29.400 - 29.500 MHz
JAS-2 24 Apr 17:29:48 17:31:47 12° 48° (NE) 17:33:45 435.800 - 435.900 CW/SSB, 435.910 FM
Uosat F 24 Apr 17:37:47 17:42:04 28° 266° (W) 17:46:22 435.120 FM
ISS 24 Apr 17:44:06 17:47:29 88° 3° (N) 17:50:52 145.800 FM
Hamsat 24 Apr 18:16:33 18:20:36 46° 69° (ENE) 18:24:44 145.90 MHz
Saudisat 1A 24 Apr 18:18:14 18:22:41 69° 44° (NE) 18:27:04 436.775 MHz
OPAL 24 Apr 18:43:59 18:47:12 17° 311° (NW) 18:50:25 ?
JAS-1B 24 Apr 18:46:22 18:48:44 12° 277° (W) 18:51:00 435.800 - 435.900 CW/SSB
SO-50 24 Apr 18:47:32 18:50:38 18° 349° (N) 18:53:46 436.795 FM
RS-15 24 Apr 18:54:26 18:57:30 12° 269° (W) 19:00:35 29.354 - 29.394 USB, Beacon 29.352 USB
UOSAT-12 24 Apr 18:55:06 18:59:33 45° 322° (NW) 19:04:06 437.025 FM, 437.400 FM
SO-67 24 Apr 19:02:30 19:05:26 25° 66° (ENE) 19:08:22 435.3500 MHz FM
JAS-2 24 Apr 19:10:37 19:15:57 60° 69° (ENE) 19:21:03 435.800 - 435.900 CW/SSB, 435.910 FM
ISS 24 Apr 19:20:51 19:24:07 48° 203° (SSW) 19:27:24 145.800 FM
AO-7 24 Apr 19:26:57 19:30:49 14° 279° (W) 19:34:42 29.400 - 29.500 MHz
HO-68 24 Apr 19:36:32 19:41:50 23° 46° (NE) 19:47:10 435.675 MHz FM
STRAND 1 24 Apr 19:51:23 19:56:10 39° 97° (E) 20:00:55 ?
Hamsat 24 Apr 19:53:28 19:56:50 23° 268° (W) 20:00:16 145.90 MHz
Saudisat 1A 24 Apr 19:58:31 20:01:53 21° 244° (WSW) 20:05:12 436.775 MHz
SO-50 24 Apr 20:29:34 20:32:50 19° 14° (NNE) 20:36:07 436.795 FM
SO-67 24 Apr 20:35:27 20:38:32 28° 265° (W) 20:41:38 435.3500 MHz FM
UOSAT-12 24 Apr 20:37:24 20:40:49 20° 346° (NNW) 20:44:16 437.025 FM, 437.400 FM
JAS-2 24 Apr 20:57:15 21:01:31 23° 268° (W) 21:05:39 435.800 - 435.900 CW/SSB, 435.910 FM
ISS 24 Apr 20:58:33 21:00:15 13° 221° (SW) 21:01:57 145.800 FM
HO-68 24 Apr 21:21:27 21:28:35 78° 68° (ENE) 21:35:46 435.675 MHz FM
STRAND 1 24 Apr 21:30:42 21:35:22 37° 297° (WNW) 21:40:01 ?
Oscar 11 24 Apr 21:46:50 21:50:56 45° 68° (ENE) 21:55:05 145.825 FM, Beacon 2401.500 USB
FUNcube-1 24 Apr 21:55:27 21:58:34 21° 61° (ENE) 22:01:42 145.950 - 145.970 MHz USB
SO-50 24 Apr 22:10:05 22:14:30 43° 37° (NE) 22:18:59 436.795 FM
MaSat-1 24 Apr 22:11:55 22:14:24 41° 307° (NW) 22:16:46 437.345 MHz
UOSAT-12 24 Apr 22:19:19 22:22:36 18° 10° (N) 22:25:54 437.025 FM, 437.400 FM
HO-68 24 Apr 23:11:14 23:17:02 26° 269° (W) 23:22:54 435.675 MHz FM
Sapphire 24 Apr 23:18:39 23:22:00 17° 106° (ESE) 23:25:21 437.095 MHz 1200 baud AX-25 AFSK
Oscar 11 24 Apr 23:23:49 23:27:21 24° 267° (W) 23:30:54 145.825 FM, Beacon 2401.500 USB
FUNcube-1 24 Apr 23:30:38 23:34:42 52° 260° (W) 23:38:48 145.950 - 145.970 MHz USB
SO-50 24 Apr 23:50:45 23:55:07 41° 237° (WSW) 23:59:31 436.795 FM
UOSAT-12 24 Apr 23:59:36 00:04:01 37° 34° (NNE) 00:08:24 437.025 FM, 437.400 FM
PCSat 25 Apr 00:00:57 00:05:51 36° 115° (ESE) 00:10:46 145.825 MHz
Sapphire 25 Apr 00:59:13 01:04:38 84° 126° (SE) 01:10:06 437.095 MHz 1200 baud AX-25 AFSK
OPAL 25 Apr 01:10:06 01:12:40 14° 46° (NE) 01:15:16 ?
UOSAT-12 25 Apr 01:39:46 01:44:23 54° 235° (SW) 01:48:58 437.025 FM, 437.400 FM
PCSat 25 Apr 01:43:51 01:49:08 52° 316° (NW) 01:54:28 145.825 MHz
KITSAT 1 25 Apr 01:44:37 01:51:05 27° 106° (ESE) 01:57:32 435.175 FM
Oscar 19 25 Apr 02:43:34 02:48:23 37° 96° (E) 02:53:10 437.125 CW, 437.150 USB
AO-27 25 Apr 02:44:00 02:47:58 22° 91° (E) 02:51:54 436.795 MHz FM
Sapphire 25 Apr 02:44:01 02:48:42 29° 328° (NNW) 02:53:25 437.095 MHz 1200 baud AX-25 AFSK
OPAL 25 Apr 02:45:36 02:50:37 62° 67° (ENE) 02:55:43 ?
Oscar 16 25 Apr 02:52:52 02:57:53 46° 99° (E) 03:02:52 437.025 USB, Beacon 2401.1428
ITAMSAT 1 25 Apr 02:52:53 02:57:08 25° 92° (E) 03:01:22 435.822 SSB
Gurwin Techsat 1B 25 Apr 03:11:39 03:14:20 14° 85° (E) 03:17:01 435.225 FM
PCSat 25 Apr 03:29:49 03:33:48 20° 340° (NNW) 03:37:48 145.825 MHz
AO-Echo 25 Apr 03:36:37 03:41:13 45° 99° (E) 03:45:43 ?
KITSAT 1 25 Apr 03:37:25 03:45:34 90° 309° (NW) 03:53:45 435.175 FM
Uribyol 2 25 Apr 03:39:15 03:44:24 60° 102° (ESE) 03:49:32 436.500 FM
TMSAT-1 25 Apr 03:54:50 03:59:01 23° 91° (E) 04:03:10 436.925 FM
AO-27 25 Apr 04:22:49 04:27:58 66° 290° (WNW) 04:33:06 436.795 MHz FM
Oscar 19 25 Apr 04:22:57 04:27:48 40° 296° (WNW) 04:32:37 437.125 CW, 437.150 USB
OPAL 25 Apr 04:25:53 04:29:55 24° 266° (W) 04:34:02 ?
JAS-1B 25 Apr 04:28:14 04:32:46 24° 91° (E) 04:37:28 435.800 - 435.900 CW/SSB
Sapphire 25 Apr 04:30:35 04:33:56 16° 354° (N) 04:37:17 437.095 MHz 1200 baud AX-25 AFSK
ITAMSAT 1 25 Apr 04:31:55 04:37:01 58° 292° (WNW) 04:42:04 435.822 SSB
Oscar 16 25 Apr 04:32:30 04:37:07 33° 298° (WNW) 04:41:43 437.025 USB, Beacon 2401.1428
Gurwin Techsat 1B 25 Apr 04:49:51 04:55:12 80° 105° (ESE) 05:00:31 435.225 FM
MaSat-1 25 Apr 04:51:26 04:53:32 18° 47° (NE) 04:55:51 437.345 MHz
RS-15 25 Apr 05:00:50 05:07:21 18° 96° (E) 05:13:45 29.354 - 29.394 USB, Beacon 29.352 USB
AO-Echo 25 Apr 05:15:46 05:19:51 29° 299° (WNW) 05:23:51 ?
PCSat 25 Apr 05:15:58 05:19:18 16° 6° (N) 05:22:39 145.825 MHz
Uribyol 2 25 Apr 05:19:20 05:23:34 26° 302° (WNW) 05:27:48 436.500 FM
AO-7 25 Apr 05:23:10 05:30:44 37° 95° (E) 05:38:15 29.400 - 29.500 MHz
TMSAT-1 25 Apr 05:34:09 05:39:24 64° 290° (WNW) 05:44:38 436.925 FM
KITSAT 1 25 Apr 05:34:27 05:41:58 39° 334° (NNW) 05:49:30 435.175 FM
STRAND 1 25 Apr 05:35:46 05:39:15 19° 54° (NE) 05:42:45 ?
Uosat F 25 Apr 05:38:54 05:43:53 61° 102° (ESE) 05:48:49 435.120 FM
AO-27 25 Apr 06:03:57 06:06:36 14° 310° (NW) 06:09:14 436.795 MHz FM
ITAMSAT 1 25 Apr 06:13:23 06:15:30 13° 312° (NW) 06:17:38 435.822 SSB
Sapphire 25 Apr 06:15:29 06:19:27 20° 20° (NNE) 06:23:24 437.095 MHz 1200 baud AX-25 AFSK
JAS-1B 25 Apr 06:18:25 06:24:01 62° 292° (WNW) 06:29:51 435.800 - 435.900 CW/SSB
MaSat-1 25 Apr 06:29:10 06:31:58 39° 242° (WSW) 06:35:13 437.345 MHz
Gurwin Techsat 1B 25 Apr 06:30:43 06:34:38 21° 305° (NW) 06:38:31 435.225 FM
PCSat 25 Apr 06:59:51 07:04:33 28° 31° (NNE) 07:09:13 145.825 MHz
RS-15 25 Apr 07:06:22 07:17:21 64° 121° (ESE) 07:28:03 29.354 - 29.394 USB, Beacon 29.352 USB
STRAND 1 25 Apr 07:12:43 07:17:51 87° 254° (WSW) 07:22:59 ?
TMSAT-1 25 Apr 07:15:44 07:18:23 14° 311° (NW) 07:21:02 436.925 FM
AO-7 25 Apr 07:15:50 07:24:04 67° 297° (WNW) 07:32:17 29.400 - 29.500 MHz
Uosat F 25 Apr 07:18:19 07:22:20 25° 302° (WNW) 07:26:20 435.120 FM
Hamsat 25 Apr 07:32:44 07:36:57 46° 98° (E) 07:41:10 145.90 MHz
KITSAT 1 25 Apr 07:32:48 07:39:44 29° 3° (N) 07:46:39 435.175 FM
SO-67 25 Apr 07:55:06 07:57:14 15° 90° (E) 07:59:21 435.3500 MHz FM
JAS-2 25 Apr 07:57:32 08:02:27 32° 95° (E) 08:07:48 435.800 - 435.900 CW/SSB, 435.910 FM
Sapphire 25 Apr 07:58:50 08:04:08 51° 44° (NE) 08:09:25 437.095 MHz 1200 baud AX-25 AFSK
JAS-1B 25 Apr 08:11:01 08:13:39 14° 315° (NW) 08:16:19 435.800 - 435.900 CW/SSB
Oscar 10/S400 25 Apr 08:26:06 09:23:32 54° 181° (S) 17:23:40 145.825 - 145.975 CW/USB, Beacon 145.810 USB
PCSat 25 Apr 08:43:09 08:48:37 86° 234° (SW) 08:54:03 145.825 MHz
STRAND 1 25 Apr 08:55:02 08:57:49 15° 274° (W) 09:00:37 ?
Hamsat 25 Apr 09:09:10 09:12:45 25° 297° (WNW) 09:16:19 145.90 MHz
AO-7 25 Apr 09:09:26 09:15:31 23° 321° (NW) 09:21:36 29.400 - 29.500 MHz
RS-15 25 Apr 09:19:04 09:30:01 59° 328° (NNW) 09:40:49 29.354 - 29.394 USB, Beacon 29.352 USB
SO-67 25 Apr 09:27:16 09:30:41 49° 288° (WNW) 09:34:04 435.3500 MHz FM
KITSAT 1 25 Apr 09:29:35 09:37:20 45° 31° (NNE) 09:45:01 435.175 FM
Sapphire 25 Apr 09:42:31 09:47:28 37° 245° (WSW) 09:52:24 437.095 MHz 1200 baud AX-25 AFSK
JAS-2 25 Apr 09:42:34 09:47:47 49° 293° (WNW) 09:53:30 435.800 - 435.900 CW/SSB, 435.910 FM
Saudisat 1A 25 Apr 10:09:34 10:13:20 27° 118° (ESE) 10:17:06 436.775 MHz
PCSat 25 Apr 10:27:49 10:31:17 17° 254° (WSW) 10:34:45 145.825 MHz
HO-68 25 Apr 10:30:46 10:37:45 50° 100° (E) 10:44:40 435.675 MHz FM
AO-7 25 Apr 11:03:34 11:05:20 11° 347° (NNW) 11:07:07 29.400 - 29.500 MHz
Oscar 11 25 Apr 11:05:03 11:09:14 42° 98° (E) 11:13:24 145.825 FM, Beacon 2401.500 USB
FUNcube-1 25 Apr 11:14:43 11:17:58 21° 91° (E) 11:21:16 145.950 - 145.970 MHz USB
KITSAT 1 25 Apr 11:25:15 11:33:21 74° 236° (SW) 11:41:22 435.175 FM
JAS-2 25 Apr 11:30:31 11:31:49 11° 314° (NW) 11:33:08 435.800 - 435.900 CW/SSB, 435.910 FM
RS-15 25 Apr 11:34:38 11:44:54 42° 0° (N) 11:55:09 29.354 - 29.394 USB, Beacon 29.352 USB
Saudisat 1A 25 Apr 11:48:17 11:52:42 57° 318° (NW) 11:57:07 436.775 MHz
HO-68 25 Apr 12:18:42 12:25:26 45° 301° (WNW) 12:32:10 435.675 MHz FM
Oscar 19 25 Apr 12:28:56 12:32:19 18° 53° (NE) 12:35:43 437.125 CW, 437.150 USB
AO-27 25 Apr 12:31:51 12:33:48 12° 47° (NE) 12:35:45 436.795 MHz FM
Oscar 16 25 Apr 12:37:48 12:41:39 22° 56° (NE) 12:45:30 437.025 USB, Beacon 2401.1428
ITAMSAT 1 25 Apr 12:40:09 12:42:38 14° 49° (NE) 12:45:07 435.822 SSB
Oscar 11 25 Apr 12:41:37 12:45:17 27° 297° (WNW) 12:48:57 145.825 FM, Beacon 2401.500 USB
FUNcube-1 25 Apr 12:50:31 12:54:42 53° 290° (WNW) 12:58:57 145.950 - 145.970 MHz USB
AO-7 25 Apr 12:52:12 12:54:30 11° 15° (NNE) 12:56:49 29.400 - 29.500 MHz
AO-Echo 25 Apr 13:17:56 13:21:32 20° 57° (ENE) 13:25:03 ?
KITSAT 1 25 Apr 13:22:02 13:27:26 20° 258° (WSW) 13:32:49 435.175 FM
Uribyol 2 25 Apr 13:24:28 13:28:47 28° 59° (ENE) 13:33:08 436.500 FM
Saudisat 1A 25 Apr 13:29:49 13:33:11 20° 341° (NNW) 13:36:32 436.775 MHz
JAS-1B 25 Apr 13:35:16 13:36:05 10° 41° (NE) 13:36:54 435.800 - 435.900 CW/SSB
ISS 25 Apr 13:44:10 13:45:55 14° 139° (SE) 13:47:41 145.800 FM
TMSAT-1 25 Apr 13:44:45 13:47:02 13° 48° (NE) 13:49:19 436.925 FM
RS-15 25 Apr 13:48:56 13:59:45 59° 33° (NNE) 14:10:41 29.354 - 29.394 USB, Beacon 29.352 USB
Oscar 19 25 Apr 14:05:48 14:10:58 87° 73° (ENE) 14:16:12 437.125 CW, 437.150 USB
AO-27 25 Apr 14:07:14 14:12:17 55° 68° (ENE) 14:17:21 436.795 MHz FM
HO-68 25 Apr 14:07:55 14:11:28 15° 324° (NW) 14:15:02 435.675 MHz FM
SO-50 25 Apr 14:12:06 14:15:04 17° 113° (ESE) 14:18:02 436.795 FM
Oscar 16 25 Apr 14:15:20 14:20:30 76° 256° (WSW) 14:25:43 437.025 USB, Beacon 2401.1428
ITAMSAT 1 25 Apr 14:16:06 14:21:12 63° 69° (ENE) 14:26:20 435.822 SSB
Gurwin Techsat 1B 25 Apr 14:37:20 14:42:09 37° 63° (ENE) 14:47:00 435.225 FM
AO-7 25 Apr 14:38:06 14:44:28 26° 42° (NE) 14:50:51 29.400 - 29.500 MHz
AO-Echo 25 Apr 14:54:39 14:59:48 80° 256° (WSW) 15:04:49 ?
Uribyol 2 25 Apr 15:02:57 15:08:01 55° 259° (W) 15:13:06 436.500 FM
Saudisat 1A 25 Apr 15:11:35 15:14:21 16° 5° (N) 15:17:06 436.775 MHz
ISS 25 Apr 15:18:49 15:22:03 50° 158° (SSE) 15:25:20 145.800 FM
JAS-1B 25 Apr 15:18:49 15:25:22 41° 63° (ENE) 15:31:03 435.800 - 435.900 CW/SSB
Uosat F 25 Apr 15:20:07 15:24:14 26° 59° (ENE) 15:28:22 435.120 FM
TMSAT-1 25 Apr 15:20:45 15:25:56 58° 69° (ENE) 15:31:09 436.925 FM
AO-27 25 Apr 15:47:50 15:52:08 26° 267° (W) 15:56:28 436.795 MHz FM
Oscar 19 25 Apr 15:47:52 15:51:03 16° 273° (W) 15:54:15 437.125 CW, 437.150 USB
SO-50 25 Apr 15:50:33 15:55:03 84° 313° (NW) 15:59:38 436.795 FM
ITAMSAT 1 25 Apr 15:57:07 16:01:09 23° 269° (W) 16:05:12 435.822 SSB
Oscar 16 25 Apr 15:58:33 16:00:47 13° 276° (W) 16:03:00 437.025 USB, Beacon 2401.1428
UOSAT-12 25 Apr 15:58:36 16:00:35 13° 109° (ESE) 16:02:36 437.025 FM, 437.400 FM
RS-15 25 Apr 16:01:42 16:12:21 62° 240° (WSW) 16:23:15 29.354 - 29.394 USB, Beacon 29.352 USB
Gurwin Techsat 1B 25 Apr 16:17:06 16:22:06 41° 263° (W) 16:27:09 435.225 FM
AO-7 25 Apr 16:27:52 16:36:06 75° 65° (ENE) 16:44:24 29.400 - 29.500 MHz
OPAL 25 Apr 16:28:43 16:33:55 60° 104° (ESE) 16:39:03 ?
AO-Echo 25 Apr 16:36:58 16:39:21 13° 274° (W) 16:41:44 ?
Saudisat 1A 25 Apr 16:51:27 16:55:19 28° 29° (NNE) 16:59:09 436.775 MHz
ISS 25 Apr 16:55:20 16:58:42 88° 358° (N) 17:02:05 145.800 FM
Uosat F 25 Apr 16:57:48 17:02:45 57° 259° (WSW) 17:07:42 435.120 FM
Hamsat 25 Apr 16:59:29 17:00:23 11° 52° (NE) 17:01:18 145.90 MHz
TMSAT-1 25 Apr 17:01:54 17:06:14 26° 268° (W) 17:10:37 436.925 FM
JAS-1B 25 Apr 17:09:05 17:16:04 46° 261° (W) 17:22:03 435.800 - 435.900 CW/SSB
